TISXTFFF

Guest
Details From TISX - St Croix - Henry E Rohlsen
To TFFF - Martinique/Aime Cesaire Intl
Flight Number -
Tags decoded
Created
Modified
Stats Distance 288 nm / 534 km
Max Altitude 0 ft / 0 m
Waypoints 6
Social Downloads 0
Likes 0
Share VATSIM

Download

Looking for another format? Having issues loading an existing format? Contact us
Advertisement - Login to hide

Notes

Requested: TISX PORQE ILURI DUNTA EMOLA TFFF

Route

TISX PORQE ILURI DUNTA EMOLA TFFF

ID Type Via Altitude Latitude Longitude Leg Dist Tot Dist Heading (true) Name
O TISX APT - 0 ft / 0 m 17.70151˚ -64.80197˚ - 0 nm - St Croix - Henry E Rohlsen
PORQE FIX - 0 ft / 0 m 17.15999˚ -64.01449˚ 55 nm 55 nm 126° / 126° -
ILURI FIX - 0 ft / 0 m 16.30000˚ -63.00000˚ 77 nm 133 nm 131° / 132° -
DUNTA FIX - 0 ft / 0 m 15.60889˚ -62.19306˚ 62 nm 195 nm 132° / 132° -
EMOLA FIX - 0 ft / 0 m 15.13528˚ -61.64639˚ 42 nm 238 nm 132° / 132° -
O TFFF APT - 0 ft / 0 m 14.59103˚ -61.00317˚ 49 nm 288 nm 131° / 131° Martinique/Aime Cesaire Intl

Altitude Profile

Advertisement - Login to hide

Weather


0- 5 10 15 20 25 30 35+ Temperature / ° C

Clouds and Precipitation
Forecast for 2017-12-14 12:00 UTC. Updated 2 hours ago

Ground ~20,000 ft ~40,000 ft Winds

TISX

Details ICAO TISX (STX)
Name St Croix - Henry E Rohlsen
Region USA (U.S. Virgin Islands)
Timezone America/St_Thomas (UTC-4.0)
Stats Elevation 65 ft / 20 m (AMSL)
Location 17.701505° -64.801975°
Runways 1
Magnetic Variation 13.676° W

METAR

TISX 141253Z 10011KT 10SM FEW030 28/22 A3006

Decode

TAF

TAF TISX 141140Z 1412/1512 VRB05KT P6SM SCT025 FM141400 10013KT P6SM FEW025 FM142300 06006KT P6SM FEW030

Decode

Departure Runways

ID Width Length Bearing (true) Bearing (mag) Surface Threshold Offset Overrun Length
10 151 ft / 46 m 9,969 ft / 3,039 m 83.93° 97.61° Asphalt 0 ft / 0 m 200 ft / 61 m
28 151 ft / 46 m 9,969 ft / 3,039 m 263.93° 277.61° Asphalt 984 ft / 300 m 200 ft / 61 m

TFFF

Details ICAO TFFF (FDF)
Name Martinique/Aime Cesaire Intl
Region France (Guadeloupe, Martinique, Saint Barthélemy, Saint Martin)
Timezone America/Martinique (UTC-4.0)
Stats Elevation 16 ft / 5 m (AMSL)
Location 14.591032° -61.003173°
Runways 1
Magnetic Variation 15.058° W

METAR

TFFF 141300Z AUTO 11010KT 9999 FEW028 28/22 Q1017 NOSIG

Decode

TAF

TAF TFFF 141100Z 1412/1512 08010KT 9999 SCT030 PROB30 TEMPO 1421/1512 4000 SHRA FEW015TCU

Decode

Destination Runways

ID Width Length Bearing (true) Bearing (mag) Surface Threshold Offset Overrun Length
09 148 ft / 45 m 9,852 ft / 3,003 m 79.93° 94.99° Asphalt 0 ft / 0 m 0 ft / 0 m
27 148 ft / 45 m 9,852 ft / 3,003 m 259.94° 275.00° Asphalt 820 ft / 250 m 948 ft / 289 m

Approach Navaids

Runway Type Ident Frequency Range Bearing (true) Bearing (mag) Slope Elevation
09 Localiser FF 109.90 MHz 18 nm / 33 km 79.90° 94.96° - 16 ft / 5 m (AMSL)
09 Glidescope FF 109.90 MHz 10 nm / 19 km 79.93° 94.99° 3.00° 16 ft / 5 m (AMSL)

Popular Alternatives